TimeCST,TemperatureF,Dew PointF,Humidity,Sea Level PressureIn,VisibilityMPH,Wind Direction,Wind SpeedMPH,Gust SpeedMPH,PrecipitationIn,Events,Conditions,WindDirDegrees,DateUTC
12:53 AM,41.0,33.1,73,29.91,10.0,WSW,4.6,-,N/A,,Overcast,240,2013-02-28 06:53:00
1:53 AM,42.1,34.0,73,29.90,10.0,West,10.4,-,N/A,,Overcast,260,2013-02-28 07:53:00
2:53 AM,42.1,34.0,73,29.90,10.0,West,10.4,-,N/A,,Overcast,260,2013-02-28 08:53:00
3:53 AM,42.1,33.1,70,29.90,10.0,WNW,10.4,-,N/A,,Overcast,300,2013-02-28 09:53:00
4:53 AM,39.0,28.0,65,29.93,10.0,WNW,13.8,-,N/A,,Mostly Cloudy,290,2013-02-28 10:53:00
5:53 AM,37.4,26.6,65,29.94,10.0,NW,15.0,-,N/A,,Mostly Cloudy,320,2013-02-28 11:53:00
6:53 AM,36.0,25.0,64,29.98,10.0,WNW,10.4,-,N/A,,Partly Cloudy,300,2013-02-28 12:53:00
7:53 AM,39.2,26.6,61,29.99,10.0,NW,13.8,20.7,N/A,,Partly Cloudy,310,2013-02-28 13:53:00
8:53 AM,39.0,27.0,62,30.00,10.0,WNW,11.5,-,N/A,,Overcast,300,2013-02-28 14:53:00
9:53 AM,39.9,28.0,63,30.00,10.0,WNW,13.8,-,N/A,,Overcast,300,2013-02-28 15:53:00
10:53 AM,39.9,27.0,60,30.02,10.0,NW,9.2,-,N/A,,Overcast,320,2013-02-28 16:53:00
11:53 AM,39.0,27.0,62,30.02,10.0,WNW,13.8,-,N/A,,Overcast,300,2013-02-28 17:53:00
12:46 PM,39.2,28.4,65,30.02,10.0,WNW,10.4,-,N/A,,Overcast,290,2013-02-28 18:46:00
12:53 PM,39.0,28.9,67,30.02,10.0,WNW,9.2,-,N/A,,Overcast,300,2013-02-28 18:53:00
1:53 PM,39.0,28.9,67,30.04,10.0,NW,11.5,-,N/A,,Overcast,320,2013-02-28 19:53:00
2:53 PM,39.0,28.0,65,30.04,10.0,WNW,9.2,-,N/A,,Overcast,300,2013-02-28 20:53:00
3:53 PM,39.2,26.6,61,30.04,10.0,WNW,12.7,-,N/A,,Overcast,290,2013-02-28 21:53:00
4:53 PM,39.0,27.0,62,30.05,10.0,NW,8.1,-,N/A,,Overcast,320,2013-02-28 22:53:00
5:53 PM,37.9,27.0,65,30.06,10.0,WNW,4.6,-,N/A,,Overcast,300,2013-02-28 23:53:00
6:53 PM,37.9,27.0,65,30.08,10.0,NW,8.1,-,N/A,,Overcast,310,2013-03-01 00:53:00
7:53 PM,37.9,26.1,62,30.08,10.0,NW,8.1,-,N/A,,Overcast,320,2013-03-01 01:53:00
8:53 PM,37.9,27.0,65,30.07,10.0,NNW,5.8,-,N/A,,Overcast,330,2013-03-01 02:53:00
9:53 PM,37.9,28.0,68,30.08,10.0,NW,4.6,-,N/A,,Overcast,320,2013-03-01 03:53:00
10:53 PM,37.9,27.0,65,30.06,10.0,NNW,5.8,-,N/A,,Overcast,330,2013-03-01 04:53:00
11:53 PM,37.0,28.0,70,30.05,10.0,NW,4.6,-,N/A,,Overcast,320,2013-03-01 05:53:00